Location: Stigler
(35.2540°N, 95.1230°W)
Time: 00:07:12
(UTC-05:00)

Daily predictions for brighter satellites

Satellite Brightness Start Highest point End
(mag) Time Altitude Azimuth Time Altitude Azimuth Time Altitude Azimuth
Cosmos 1980 4.0 00:00:42 10° NNW 00:06:07 56° ENE 00:06:07 56° ENE
H-2A R/B 3.4 00:12:25 29° WSW 00:12:40 30° W 00:17:20 10° NW
Cosmos 2082 3.8 00:18:01 75° WNW 00:18:01 75° WNW 00:23:41 10° NNE
ATLAS 2AS CENTAUR R/B 2.8 00:16:57 69° S 00:17:58 80° ESE 00:25:59 10° NNE
Cosmos 1241 Rocket 4.4 00:17:36 70° WSW 00:18:07 76° WNW 00:24:23 10° NNE
Cosmos 2237 Rocket 2.4 00:14:20 10° NNW 00:19:39 66° NE 00:19:39 66° NE
ALOS 2 4.3 00:23:07 28° NE 00:23:07 28° NE 00:25:46 10° N
Cosmos 2074 Rocket 4.3 00:41:14 55° ENE 00:41:14 55° ENE 00:46:52 10° NNE
Lacrosse 4 Rocket 3.4 00:43:08 10° N 00:45:57 25° NE 00:45:57 25° NE
ATLAS 3B R/B 3.2 00:40:34 10° NNW 00:47:15 47° NE 00:48:24 43° E
Cosmos 1709 Rocket 4.4 00:47:08 52° W 00:47:19 52° W 00:53:17 10° N
CZ-4B R/B 4.3 00:51:18 18° N 00:51:18 18° N 00:52:18 10° N
Cosmos 2227 Rocket 3.4 00:54:44 32° W 00:55:37 33° WNW 01:00:44 10° N
Cosmos 1125 Rocket 4.2 00:59:16 51° NW 00:59:16 51° NW 01:03:44 10° N
H-2A R/B 4.2 00:55:13 10° N 00:57:31 32° N 00:57:31 32° N
Cosmos 2333 Rocket 3.2 00:56:58 10° NW 01:01:13 38° WNW 01:01:13 38° WNW
Cosmos 2181 Rocket 4.5 01:02:03 10° NNW 01:07:58 50° W 01:07:58 50° W
SL-16 R/B 2.5 01:04:43 10° NNW 01:09:29 63° N 01:09:29 63° N
Cosmos 2184 Rocket 4.1 01:17:58 71° NW 01:17:58 71° NW 01:23:46 10° N
SeaSat 1 4.4 01:21:10 20° WNW 01:21:10 20° WNW 01:23:15 10° NW
COSMOS 2455 3.0 01:16:23 10° NNW 01:21:35 67° NNW 01:21:35 67° NNW
Cosmos 2297 Rocket 3.6 01:22:46 28° WNW 01:23:31 28° WNW 01:28:21 10° N
Cosmos 2341 Rocket 4.4 01:32:24 55° E 01:32:24 55° E 01:38:18 10° NNE
Cosmos 44 Rocket 4.2 01:37:34 49° N 01:37:34 49° N 01:41:32 10° NNE
CZ-2C R/B 3.9 01:36:35 51° ENE 01:36:35 51° ENE 01:41:56 10° N
Cosmos 2219 Rocket 4.5 01:34:54 10° WNW 01:36:07 13° W 01:36:07 13° W
MOS 1-B Rocket 4.0 01:41:29 71° NNW 01:41:29 71° NNW 01:46:28 10° NNW
CZ-2C R/B 3.1 01:38:13 10° N 01:42:21 55° N 01:42:21 55° N
Cosmos 1603 4.2 01:38:08 10° NNW 01:43:23 55° NE 01:43:23 55° NE
Meteor 1-10 Rocket 4.5 01:42:13 10° N 01:47:33 72° N 01:47:33 72° N
Cosmos 962 Rocket 4.5 01:51:49 74° NE 01:51:49 74° NE 01:57:29 10° N
Meteor 2-10 Rocket 4.2 01:48:37 10° NNW 01:53:05 56° NW 01:53:05 56° NW
SL-8 Rocket 4.4 01:59:57 53° E 01:59:59 53° E 02:06:07 10° NNE
Cosmos 2251 Rocket 4.2 01:55:50 10° NNW 01:59:50 52° NNW 01:59:50 52° NNW
ATLAS 2A CENTAUR R/B 4.1 02:19:13 29° SE 02:19:13 29° SE 02:28:27 10° E
Cosmos 2366 rocket 4.2 02:20:56 55° ESE 02:21:12 56° E 02:27:13 10° NNE
Lacrosse 4 Rocket 4.2 02:22:00 10° NW 02:22:17 11° NW 02:22:17 11° NW
Okean 2 Rocket 4.1 02:26:55 45° NNE 02:26:55 45° NNE 02:30:07 10° N
Meteor 2-13 Rocket 4.3 02:27:54 79° WNW 02:27:54 79° WNW 02:33:55 10° N
Nadezhda 3 Rocket 4.5 02:22:30 10° NNW 02:27:56 47° WNW 02:27:56 47° WNW
Cosmos 1825 4.2 02:33:05 26° N 02:33:05 26° N 02:34:51 10° N
CZ-4C R/B 3.3 02:28:04 10° NNW 02:35:12 60° NE 02:40:37 21° SE
ATLAS 3B R/B 4.0 02:31:56 10° NW 02:35:37 25° W 02:35:37 25° W
USA 238 DEB 3.6 02:30:37 10° NW 02:37:35 69° WSW 02:37:39 69° WSW
USA 238 3.6 02:30:43 10° NW 02:37:42 70° WSW 02:37:48 70° SW
ERS-2 4.5 02:34:58 10° NE 02:36:43 20° ENE 02:36:43 20° ENE
Cosmos 1727 Rocket 4.2 02:38:11 10° N 02:44:23 63° E 02:45:30 54° SE
Meteor 1-27 Rocket 4.2 02:41:05 10° NNW 02:46:05 48° WNW 02:46:05 48° WNW
Meteor 1-14 Rocket 4.3 02:46:51 67° SE 02:47:19 70° E 02:53:13 10° NNE
Cosmos 864 Rocket 4.3 02:47:10 78° S 02:47:38 88° E 02:53:49 10° N
Cosmos 2263 Rocket 2.1 02:49:59 85° WNW 02:49:59 85° WNW 02:55:43 10° NNE
PSLV R/B 4.5 02:48:15 10° N 02:51:14 43° NNW 02:51:14 43° NNW
Iridium 4 Rocket 3.7 02:51:02 10° N 02:55:32 58° E 02:55:32 58° E
H-2A R/B 3.7 02:56:59 41° SSE 02:56:59 41° SSE 03:14:06 10° ESE
USA 234 3.3 02:51:13 15° SE 02:56:45 79° NE 03:03:17 10° NW
CBERS-1 4.3 02:54:43 10° NNE 02:59:47 57° E 03:00:00 56° ESE
Cosmos 1975 Rocket 4.4 03:00:38 10° NNW 03:03:15 30° NW 03:03:15 30° NW
NOSS 3-2 (C) 4.2 03:03:55 10° NNW 03:11:32 74° ENE 03:19:38 10° SE
IRS-1C 4.2 03:09:16 10° NNE 03:14:35 65° ESE 03:15:22 57° SE
Cosmos 1607 4.2 03:10:28 10° NW 03:15:48 48° W 03:15:48 48° W
Cosmos 1536 Rocket 3.7 03:12:18 10° N 03:16:30 71° ENE 03:16:30 71° ENE
SL-16 R/B 4.1 03:14:46 10° SE 03:20:08 31° ENE 03:25:30 10° N
Meteor 1-18 Rocket 4.4 03:15:09 10° N 03:20:47 70° E 03:22:39 43° SSE
Cosmos 1943 3.5 03:15:36 10° NNW 03:20:39 50° W 03:20:39 50° W
Cosmos 1371 Rocket 4.2 03:22:28 55° W 03:22:51 56° WNW 03:28:08 10° N
Cosmos 2151 Rocket 4.0 03:24:17 50° NW 03:24:17 50° NW 03:28:06 10° N
Cosmos 2056 Rocket 3.4 03:23:52 69° WSW 03:24:23 76° WNW 03:29:40 10° NNE
H-2A R/B 4.4 02:56:50 10° W 03:24:34 34° SW 03:24:34 34° SW
IRS-P3 4.4 03:24:30 10° N 03:29:39 50° WNW 03:30:16 47° W
NOSS 3-4 (A) 4.3 03:28:24 32° W 03:30:29 41° NW 03:36:39 10° NNE
NOSS 3-4 (C) 4.3 03:28:29 32° W 03:30:34 41° NW 03:36:44 10° NNE
Spot 4 Rocket 4.2 03:25:47 10° NNE 03:30:55 66° ESE 03:32:06 50° SSE
OAO 2 Rocket 3.3 03:34:02 62° SSE 03:34:02 62° SSE 03:38:41 10° ESE
SL-08 R/B 3.3 03:35:47 63° WSW 03:36:03 65° WSW 03:40:58 10° NNW
NOSS 3-2 (A) 3.9 03:29:32 10° NW 03:37:07 67° WSW 03:42:41 22° SSE
SL-24 DEB 4.2 03:34:13 10° N 03:38:49 65° W 03:39:04 63° WSW
Cosmos 407 Rocket 4.0 03:35:17 10° N 03:40:21 56° ENE 03:44:08 18° SE
Okean O Rocket 4.2 03:40:43 10° ENE 03:42:48 13° E 03:44:54 10° ESE
Okean 1 Rocket 3.0 03:42:19 66° SSE 03:42:53 80° E 03:47:20 10° N
SL-27 R/B 3.9 03:43:31 10° N 03:46:57 37° ENE 03:48:44 23° ESE
Resurs 1-4 Rocket 2.8 03:43:28 10° NNE 03:48:36 48° E 03:51:14 26° SSE
Cosmos 1821 Rocket 4.0 03:45:49 36° S 03:48:38 85° E 03:55:04 10° N
Delta 2 Rocket 4.4 03:49:02 38° S 03:49:15 38° S 03:54:56 10° ESE
ERS-1 4.5 03:44:08 10° NNE 03:49:22 90° WNW 03:50:56 47° SSW
Cosmos 1242 Rocket 4.4 03:46:51 10° NNW 03:48:21 21° NW 03:48:21 21° NW
RESURS DK-1 3.7 03:51:35 27° WNW 03:51:44 27° WNW 03:55:20 10° N
IRS-1D 3.7 03:47:09 10° NNE 03:52:12 64° E 03:54:11 36° S
GP-B 3.1 03:47:55 10° N 03:52:18 61° W 03:52:45 58° WSW
Okean 1 3.2 03:48:26 10° N 03:52:26 90° SSE 03:52:52 70° S
Cosmos 1867 3.5 03:48:47 10° NW 03:54:13 65° WSW 03:56:28 35° S
Meteor 1-20 Rocket 4.4 03:54:04 42° SW 03:55:48 59° W 04:01:33 10° N
Tiangong 1 2.7 03:56:53 18° NW 03:58:38 33° NNE 04:01:28 10° E
Cosmos 1812 2.8 03:58:36 10° NNW 04:02:23 54° W 04:02:23 54° W
Cosmos 1633 4.0 04:01:29 23° SE 04:02:59 33° E 04:06:16 10° NNE
Yuri Rocket 4.2 04:03:44 33° S 04:03:52 33° S 04:08:04 10° ESE
SME Rocket 4.0 04:00:38 10° SE 04:04:13 41° ENE 04:07:50 10° N
Hubble Space Telescope 2.7 04:06:39 17° SSE 04:06:39 17° SSE 04:08:01 10° SE
ERS-2 4.1 04:09:12 10° NNW 04:11:34 17° WNW 04:11:34 17° WNW
BREEZE-M DEB (TANK) 3.1 04:12:58 28° SE 04:12:58 28° SE 04:15:21 10° E
Cosmos 1954 Rocket 4.3 04:08:52 10° NNW 04:14:01 66° ENE 04:19:08 10° SSE
Meteor 2-14 Rocket 4.3 04:13:32 27° SSW 04:17:01 81° W 04:23:07 10° N
Meteor 2-21 Rocket 4.4 04:15:30 29° SSW 04:18:38 67° W 04:24:42 10° N
ADEOS 4.4 04:14:31 10° N 04:19:12 35° WNW 04:21:03 27° WSW
Sakura Rocket 4.3 04:19:24 31° SSW 04:20:20 33° S 04:26:21 10° SE
NOSS 2-2 (E) 3.5 04:19:17 38° SSW 04:20:50 79° ESE 04:25:28 10° NNE
Cosmos 1461 4.1 04:18:29 22° S 04:21:07 41° ESE 04:25:30 10° NE
CZ-4C R/B 3.8 04:17:26 10° NW 04:23:31 28° WSW 04:25:38 25° SW
Cosmos 1025 Rocket 3.1 04:22:13 10° N 04:26:31 78° E 04:30:07 14° S
USA 161 3.5 04:28:06 17° WNW 04:28:06 17° WNW 04:29:09 10° NW
BREEZE-M TANK 2.4 04:24:37 10° NW 04:27:06 56° NNE 04:30:40 10° ESE
OTV 4 0.4 04:28:38 33° WNW 04:29:47 77° NNE 04:32:43 10° ESE
COSMOS 2487 4.3 04:26:30 10° N 04:29:49 33° ENE 04:33:07 10° SE
USA 129 4.0 04:29:05 15° SE 04:30:20 25° ENE 04:32:11 10° NNE
Cosmos 1452 Rocket 4.1 04:28:29 27° WSW 04:30:46 42° WNW 04:35:46 10° N
Cosmos 1844 3.7 04:27:35 26° SSW 04:30:51 78° WNW 04:36:36 10° NNE
ARIANE 5 R/B 2.9 04:26:47 10° N 04:31:30 44° WNW 04:33:52 26° SW
Meteor 2-15 4.4 04:25:44 10° N 04:31:53 80° W 04:38:01 10° S
Cosmos 1844 Rocket 3.0 04:29:44 27° SW 04:32:42 54° WNW 04:38:17 10° NNE
CZ-2D R/B 2.3 04:28:20 10° N 04:33:43 64° WNW 04:37:09 23° SSW
Cosmos 2263 Rocket 4.4 04:32:59 10° WNW 04:34:45 11° NW 04:36:32 10° NNW
Cosmos 1544 Rocket 3.6 04:33:00 19° S 04:36:07 81° E 04:40:33 10° N
COSMOS 2406 3.4 04:31:13 10° NNW 04:36:45 49° WSW 04:42:15 10° S
OPS 6431 4.4 04:34:47 10° NNW 04:37:44 89° ENE 04:40:47 10° SSE
MTI 3.7 04:37:18 21° S 04:39:26 78° W 04:42:45 10° NNW
USA 234 4.2 04:38:24 21° SW 04:40:05 23° WSW 04:45:05 10° WNW
Centaur AC-125 3.5 04:40:42 21° S 04:41:09 21° SSE 04:45:08 10° ESE
Chunghua 1 4.4 04:39:42 23° W 04:41:56 87° S 04:45:41 10° E
Skynet4D Del rocket 4.4 04:41:19 23° SW 04:43:46 33° S 04:48:53 10° ESE
Cosmos 1420 Rocket 4.1 04:41:24 22° SSW 04:44:50 65° WNW 04:50:07 10° N
Cosmos 1536 3.2 04:43:08 25° SW 04:45:09 48° W 04:49:07 10° N
Cosmos 2278 Rocket 2.2 04:42:23 19° SSW 04:46:34 86° WNW 04:52:17 10° NNE
CZ-2C R/B 3.8 04:53:00 10° SSE 04:57:42 87° ENE 05:02:30 10° NNW
Cosmos 2061 Rocket 4.4 04:51:33 10° S 04:57:45 69° E 05:04:05 10° NNE
Cosmos 1023 Rocket 4.4 04:54:10 10° NNW 04:59:15 70° WSW 05:04:17 10° S
Cosmos 1892 Rocket 3.5 04:55:49 10° NNW 05:00:08 64° W 05:04:24 10° S
Okean-O 4.1 04:58:24 10° NNE 05:02:28 35° E 05:06:31 10° SSE
UNKNOWN OBJECT B 3.8 04:59:29 10° N 05:03:10 33° WNW 05:05:50 16° SW
Meteor 2-4 Rocket 3.6 04:58:10 10° NNW 05:03:32 65° W 05:08:47 10° S
SL-16 R/B 3.1 04:57:55 10° SSW 05:03:35 37° W 05:09:17 10° NNW
CZ-4B R/B 3.3 04:58:28 10° NNE 05:04:10 87° ESE 05:09:50 10° SSW
Cosmos 1447 Rocket 4.4 04:58:35 10° N 05:04:43 71° W 05:10:47 10° S
PSLV R/B 4.0 05:00:37 10° N 05:04:45 65° WNW 05:08:33 12° SSW
ATLAS 5 CENTAUR R/B 3.8 04:59:43 10° NNW 05:05:28 43° NE 05:11:32 10° SE
Gbstr 26 Del rocket 3.9 05:03:17 13° W 05:06:19 32° NW 05:09:42 10° NNE
CENTAUR R/B 3.1 05:00:01 10° NW 05:07:59 75° WSW 05:16:16 10° SSE
Cosmos 2082 Rocket 4.2 05:03:04 10° N 05:08:12 33° ENE 05:13:16 10° SE
Cosmos 1741 Rocket 4.0 05:12:16 10° NNW 05:17:30 66° WSW 05:22:40 10° S
Cosmos 1850 Rocket 4.0 05:12:21 10° NNW 05:17:32 63° WSW 05:22:43 10° S
OAO 2 Rocket 4.4 05:13:50 10° W 05:18:00 25° SSW 05:22:04 10° SSE
Cosmos 1140 Rocket 3.8 05:13:24 10° NNW 05:18:17 45° WSW 05:23:07 10° S
Okean O Rocket 2.1 05:15:15 10° N 05:19:22 43° WNW 05:23:28 10° SW
APEX 2.9 05:20:20 10° S 05:23:01 58° ESE 05:25:59 10° NNE
Resurs 1-4 Rocket 3.7 05:24:23 10° NNW 05:28:01 19° WNW 05:31:38 10° WSW
Cosmos 1500 4.4 05:24:26 10° SSE 05:28:06 45° E 05:31:50 10° NNE
ADEOS Rocket 4.3 05:24:07 10° NNE 05:29:11 37° E 05:34:29 10° SSE
Cosmos 1602 Rocket 3.5 05:27:58 10° N 05:32:18 83° W 05:36:39 10° S
Cosmos 1400 Rocket 4.4 05:30:09 10° WSW 05:32:56 19° WNW 05:35:46 10° NNW
Tiangong 1 1.4 05:32:21 10° WNW 05:35:15 40° SSW 05:38:10 10° SE
CZ-4B R/B 3.6 05:31:52 10° N 05:36:14 47° WNW 05:40:32 10° SSW
MOZ.5/SAFIR/RUBIN 5/SL-8 4.1 05:32:10 10° S 05:36:46 49° W 05:41:25 10° NNW
Meteor PRIRODA 4.4 05:34:50 10° NNE 05:38:28 53° E 05:42:03 10° S
